"startDT [UTC]","vpos","CH4 [ppm]","stdev(CH4) [ppm]","CO2 [ppm]","stdev(CO2) [ppm]","H2O_reported [%]","stdev(H2O_reported)","CavityPressure [torr]","CavityTemp [C]","OutletValve","CH4_dry [ppm]","CO2_dry [ppm]","DasTemp [C]","EtalonTemp [C]","WarmBoxTemp [C]","MPVPosition","T_ECpre [C]","T_EC1 [C]","T_EC2 [C]","p_inlet [hPa]","p_in [hPa]","p_out [hPa]","T_inlet [C]","RH_inlet [%]","dwpt_inlet [C]","T_vent [C]","RH_vent [%]","dwpt_vent [C]","flow_vent [l min-1]","flow_inlet [l min-1]","dwpt_sample [C]","T_room [C]"
2016-11-02 00:00:00,0.0,1.94522,0.00036,405.735,0.037,0.2872,0.0015,140.001,45.000,31499.08291,1.95075,407.145,34.985,45.071,45.000,0.00,0.07,-272.86,-272.90,-5,523,-934,19.2,9.7,-13.5,19.7,9.6,-13.3,0.49,1.84,-10.3,25.9
2016-11-02 00:01:00,0.0,1.94472,0.00028,405.698,0.036,0.2859,0.0025,139.999,45.000,31499.02736,1.95025,407.105,34.971,45.071,45.000,0.00,0.07,-272.87,-272.91,-6,523,-934,19.2,9.6,-13.6,19.6,9.6,-13.4,0.49,1.87,-10.3,25.9
2016-11-02 00:02:00,0.0,1.94486,0.00019,405.744,0.036,0.2841,0.0016,140.002,45.000,31498.30535,1.95035,407.141,34.956,45.071,45.000,0.00,0.07,-272.88,-272.91,-5,523,-934,19.2,9.6,-13.7,19.6,9.5,-13.4,0.49,2.05,-10.3,25.9
2016-11-02 00:03:00,0.0,1.94468,0.00032,405.752,0.028,0.2811,0.0017,140.000,45.000,31499.29836,1.95010,407.133,34.959,45.071,45.000,0.00,0.07,-272.86,-272.90,-6,523,-934,19.2,9.5,-13.8,19.7,9.4,-13.5,0.49,1.74,-10.3,25.9
2016-11-02 00:04:00,0.0,1.94497,0.00037,405.781,0.033,0.2812,0.0021,140.001,45.000,31500.68688,1.95039,407.164,34.992,45.071,45.000,0.00,0.07,-272.88,-272.91,-5,523,-934,19.2,9.5,-13.8,19.6,9.4,-13.6,0.49,2.04,-10.3,25.9
2016-11-02 00:05:00,0.0,1.94510,0.00053,405.798,0.042,0.2816,0.0016,139.998,45.000,31500.21890,1.95047,407.183,35.000,45.071,45.000,0.00,0.07,-272.88,-272.91,-5,523,-934,19.2,9.5,-13.8,19.7,9.4,-13.5,0.48,1.88,-10.3,25.9
2016-11-02 00:06:00,0.0,1.94496,0.00046,405.726,0.047,0.2811,0.0018,140.000,45.000,31498.33431,1.95042,407.107,34.994,45.071,45.000,0.00,0.07,-272.87,-272.91,-6,523,-934,19.2,9.5,-13.7,19.6,9.4,-13.5,0.49,1.83,-10.3,25.9
2016-11-02 00:07:00,0.0,1.94518,0.00033,405.735,0.037,0.2836,0.0020,140.000,45.000,31496.23919,1.95065,407.130,34.983,45.071,45.000,0.00,0.07,-272.87,-272.90,-5,523,-934,19.2,9.6,-13.7,19.6,9.5,-13.5,0.49,2.07,-10.3,25.9
2016-11-02 00:08:00,0.0,1.94497,0.00048,405.754,0.035,0.2818,0.0015,140.000,45.000,31495.84469,1.95040,407.139,34.969,45.071,45.000,0.00,0.07,-272.87,-272.91,-6,523,-934,19.2,9.5,-13.8,19.6,9.4,-13.5,0.48,1.74,-10.3,25.9
2016-11-02 00:09:00,0.0,1.94497,0.00034,405.794,0.037,0.2799,0.0018,140.000,45.000,31496.70123,1.95038,407.170,34.991,45.071,45.000,0.00,0.07,-272.87,-272.91,-5,523,-934,19.2,9.4,-13.9,19.6,9.4,-13.6,0.49,2.01,-10.3,25.9
2016-11-02 00:10:00,0.0,1.94537,0.00036,405.817,0.044,0.2771,0.0010,140.004,45.000,31495.63013,1.95070,407.179,34.997,45.071,45.000,0.00,0.07,-272.87,-272.89,-6,523,-934,19.2,9.4,-14.0,19.6,9.3,-13.7,0.49,1.93,-10.3,25.9
2016-11-02 00:11:00,0.0,1.94542,0.00035,405.851,0.025,0.2755,0.0022,139.999,45.000,31493.16258,1.95075,407.206,34.997,45.071,45.000,0.00,0.07,-272.86,-272.90,-5,523,-934,19.2,9.3,-14.0,19.6,9.3,-13.8,0.49,1.79,-10.3,25.9
2016-11-02 00:12:00,0.0,1.94527,0.00037,405.866,0.035,0.2742,0.0017,139.999,45.000,31495.54200,1.95056,407.214,34.995,45.071,45.000,0.00,0.07,-272.88,-272.90,-6,523,-934,19.2,9.3,-14.1,19.6,9.2,-13.8,0.49,2.08,-10.3,25.9
2016-11-02 00:13:00,0.0,1.94533,0.00034,405.833,0.032,0.2758,0.0020,140.001,45.000,31495.12370,1.95065,407.190,34.994,45.071,45.000,0.00,0.07,-272.87,-272.90,-5,523,-934,19.2,9.3,-14.0,19.6,9.2,-13.8,0.49,1.76,-10.3,25.9
2016-11-02 00:14:00,0.0,1.94544,0.00032,405.852,0.040,0.2752,0.0019,139.999,45.000,31493.77396,1.95075,407.206,34.998,45.071,45.000,0.00,0.07,-272.87,-272.91,-6,523,-934,19.2,9.3,-14.0,19.6,9.2,-13.8,0.49,1.98,-10.3,25.9
2016-11-02 00:15:00,0.0,1.94516,0.00036,405.838,0.037,0.2745,0.0015,140.000,45.000,31494.07705,1.95046,407.187,35.000,45.071,45.000,0.00,0.07,-272.88,-272.91,-5,523,-934,19.2,9.3,-14.1,19.6,9.2,-13.8,0.48,1.96,-10.3,25.9
2016-11-02 00:16:00,0.0,1.94494,0.00026,405.811,0.031,0.2735,0.0019,140.003,45.000,31495.70312,1.95020,407.155,34.998,45.071,45.000,0.00,0.07,-272.86,-272.91,-5,523,-934,19.2,9.3,-14.1,19.6,9.2,-13.8,0.49,1.77,-10.3,25.9
2016-11-02 00:17:00,0.0,1.94478,0.00036,405.769,0.035,0.2757,0.0015,140.001,45.000,31495.79614,1.95008,407.125,35.007,45.071,45.000,0.00,0.07,-272.87,-272.90,-6,523,-934,19.2,9.3,-14.0,19.6,9.2,-13.8,0.49,2.09,-10.3,25.9
2016-11-02 00:18:00,0.0,1.94477,0.00042,405.799,0.029,0.2772,0.0022,140.001,45.000,31494.97330,1.95013,407.161,35.006,45.071,45.000,0.00,0.07,-272.87,-272.91,-5,523,-934,19.2,9.4,-14.0,19.6,9.3,-13.7,0.48,1.77,-10.3,25.9
2016-11-02 00:19:00,0.0,1.94506,0.00030,405.848,0.028,0.2726,0.0019,140.000,45.000,31494.81624,1.95031,407.188,35.000,45.071,45.000,0.00,0.07,-272.87,-272.91,-6,523,-934,19.2,9.3,-14.1,19.6,9.2,-13.8,0.49,1.96,-10.3,25.9
2016-11-02 00:20:00,0.0,1.94540,0.00038,405.839,0.035,0.2735,0.0017,140.001,45.000,31495.21348,1.95066,407.185,35.000,45.071,45.000,0.00,0.07,-272.88,-272.90,-4,523,-934,19.2,9.3,-14.1,19.6,9.2,-13.9,0.49,1.98,-10.3,25.9
2016-11-02 00:21:00,0.0,1.94516,0.00043,405.791,0.028,0.2770,0.0023,140.001,45.000,31495.80823,1.95053,407.153,35.000,45.071,45.000,0.00,0.07,-272.87,-272.91,-6,523,-934,19.2,9.4,-14.0,19.6,9.3,-13.8,0.49,1.76,-10.4,25.9
2016-11-02 00:22:00,0.0,1.94492,0.00032,405.791,0.033,0.2780,0.0019,140.002,45.000,31496.24554,1.95027,407.157,35.000,45.071,45.000,0.00,0.07,-272.88,-272.91,-5,523,-934,19.2,9.4,-13.9,19.6,9.3,-13.7,0.49,2.09,-10.3,25.9
2016-11-02 00:23:00,0.0,1.94475,0.00029,405.798,0.046,0.2734,0.0019,139.998,45.000,31494.92109,1.95004,407.143,34.980,45.071,45.000,0.00,0.07,-272.87,-272.90,-6,523,-934,19.2,9.3,-14.1,19.6,9.2,-13.8,0.49,1.79,-10.4,25.9
2016-11-02 00:24:00,0.0,1.94500,0.00039,405.745,0.048,0.2750,0.0015,139.998,45.000,31496.22070,1.95030,407.098,34.942,45.071,45.000,0.00,0.07,-272.87,-272.91,-5,522,-934,19.2,9.3,-14.0,19.6,9.2,-13.8,0.49,1.93,-10.4,25.9
2016-11-02 00:25:00,0.0,1.94464,0.00036,405.736,0.031,0.2766,0.0017,139.999,45.000,31497.88151,1.94997,407.095,34.939,45.071,45.000,0.00,0.07,-272.88,-272.91,-6,523,-934,19.2,9.4,-13.9,19.6,9.3,-13.8,0.49,2.00,-10.4,25.8
2016-11-02 00:26:00,0.0,1.94493,0.00040,405.732,0.047,0.2782,0.0013,139.999,45.000,31496.38339,1.95029,407.100,34.942,45.071,45.000,0.00,0.07,-272.86,-272.91,-5,523,-934,19.2,9.4,-13.9,19.6,9.3,-13.7,0.49,1.74,-10.4,25.8
2016-11-02 00:27:00,0.0,1.94493,0.00039,405.722,0.035,0.2807,0.0016,140.002,45.000,31496.21955,1.95036,407.101,34.974,45.071,45.000,0.00,0.07,-272.86,-272.90,-5,523,-934,19.2,9.5,-13.8,19.6,9.4,-13.6,0.49,2.08,-10.3,25.8
2016-11-02 00:28:00,0.0,1.94469,0.00030,405.735,0.038,0.2768,0.0014,140.003,45.000,31497.67025,1.95001,407.097,34.977,45.071,45.000,0.00,0.07,-272.88,-272.91,-6,522,-934,19.2,9.4,-13.9,19.6,9.3,-13.7,0.48,1.80,-10.4,25.8
2016-11-02 00:29:00,0.0,1.94489,0.00049,405.732,0.029,0.2749,0.0015,140.002,45.000,31495.37342,1.95022,407.084,34.984,45.071,45.000,0.00,0.07,-272.87,-272.91,-5,523,-934,19.2,9.3,-14.1,19.6,9.2,-13.8,0.49,1.91,-10.3,25.9
2016-11-02 00:30:00,0.0,1.94486,0.00043,405.691,0.028,0.2738,0.0016,139.998,45.000,31492.93008,1.95012,407.037,34.991,45.071,45.000,0.00,0.07,-272.87,-272.90,-6,522,-934,19.2,9.3,-14.1,19.6,9.2,-13.9,0.49,2.02,-10.3,25.8
2016-11-02 00:31:00,0.0,1.94494,0.00028,405.691,0.039,0.2768,0.0018,139.999,45.000,31491.79190,1.95029,407.051,34.987,45.071,45.000,0.00,0.07,-272.87,-272.91,-5,523,-934,19.2,9.4,-14.0,19.6,9.3,-13.8,0.49,1.74,-10.4,25.8
2016-11-02 00:32:00,0.0,1.94461,0.00038,405.649,0.028,0.2760,0.0017,139.998,45.000,31494.04396,1.94990,407.006,34.996,45.071,45.000,0.00,0.07,-272.88,-272.92,-6,523,-934,19.2,9.4,-14.0,19.6,9.3,-13.8,0.49,2.08,-10.4,25.9
2016-11-02 00:33:00,0.0,1.94470,0.00042,405.601,0.030,0.2799,0.0019,139.999,45.000,31492.02859,1.95011,406.977,34.968,45.071,45.000,0.00,0.07,-272.87,-272.91,-5,523,-934,19.2,9.5,-13.8,19.6,9.3,-13.7,0.48,1.83,-10.4,25.8
2016-11-02 00:34:00,0.0,1.94402,0.00034,405.602,0.034,0.2818,0.0020,139.999,45.000,31492.73445,1.94950,406.986,34.941,45.071,45.000,0.00,0.07,-272.86,-272.91,-6,523,-934,19.2,9.5,-13.8,19.6,9.4,-13.6,0.49,1.89,-10.4,25.8
2016-11-02 00:35:00,0.0,1.94409,0.00030,405.596,0.038,0.2800,0.0011,140.000,45.000,31492.86133,1.94947,406.972,34.937,45.071,45.000,0.00,0.07,-272.88,-272.91,-5,523,-934,19.2,9.5,-13.8,19.6,9.4,-13.6,0.49,2.03,-10.4,25.8
2016-11-02 00:36:00,0.0,1.94409,0.00040,405.579,0.027,0.2817,0.0017,140.001,45.000,31492.21844,1.94954,406.964,34.933,45.071,45.000,0.00,0.07,-272.87,-272.90,-6,523,-934,19.2,9.6,-13.7,19.6,9.4,-13.6,0.49,1.74,-10.4,25.8
2016-11-02 00:37:00,0.0,1.94390,0.00040,405.571,0.032,0.2833,0.0021,139.997,45.000,31491.74620,1.94935,406.962,34.932,45.071,45.000,0.00,0.07,-272.87,-272.90,-5,522,-934,19.2,9.6,-13.7,19.6,9.5,-13.5,0.49,2.07,-10.4,25.8
2016-11-02 00:38:00,0.0,1.94389,0.00037,405.510,0.067,0.2837,0.0030,140.003,45.000,31493.60887,1.94935,406.905,34.938,45.071,45.000,0.00,0.07,-272.87,-272.90,-5,523,-934,19.1,9.6,-13.7,19.6,9.5,-13.5,0.49,1.84,-10.4,25.8
2016-11-02 00:39:00,0.0,1.94377,0.00033,405.416,0.035,0.2877,0.0018,140.001,45.000,31492.84918,1.94932,406.831,34.938,45.071,45.000,0.00,0.07,-272.87,-272.91,-5,522,-934,19.2,9.8,-13.5,19.6,9.6,-13.4,0.49,1.89,-10.4,25.8
2016-11-02 00:40:00,0.0,1.94353,0.00033,405.390,0.037,0.2894,0.0016,140.002,45.000,31493.89928,1.94912,406.811,34.924,45.071,45.000,0.00,0.07,-272.87,-272.90,-5,523,-934,19.2,9.8,-13.4,19.6,9.7,-13.3,0.49,2.04,-10.4,25.8
2016-11-02 00:41:00,0.0,1.94345,0.00036,405.409,0.035,0.2920,0.0014,139.999,45.000,31491.37311,1.94908,406.844,34.879,45.071,45.000,0.00,0.07,-272.87,-272.91,-6,522,-934,19.1,9.9,-13.3,19.6,9.7,-13.2,0.49,1.74,-10.4,25.9
2016-11-02 00:42:00,0.0,1.94350,0.00042,405.384,0.042,0.2871,0.0015,139.998,45.000,31490.89656,1.94903,406.795,34.879,45.071,45.000,0.00,0.07,-272.88,-272.92,-5,523,-934,19.2,9.7,-13.5,19.6,9.7,-13.3,0.49,2.07,-10.4,25.8
2016-11-02 00:43:00,0.0,1.94334,0.00028,405.355,0.034,0.2908,0.0018,139.999,45.000,31490.22021,1.94896,406.784,34.915,45.071,45.000,0.00,0.07,-272.86,-272.90,-6,522,-934,19.2,9.8,-13.4,19.6,9.7,-13.3,0.49,1.83,-10.4,25.9
2016-11-02 00:44:00,0.0,1.94317,0.00039,405.359,0.046,0.2903,0.0021,139.999,45.000,31491.78871,1.94876,406.784,34.911,45.071,45.000,0.00,0.07,-272.87,-272.91,-4,522,-934,19.2,9.8,-13.4,19.6,9.7,-13.2,0.49,1.89,-10.4,25.9
2016-11-02 00:45:00,0.0,1.94337,0.00028,405.344,0.036,0.2926,0.0019,139.998,45.000,31489.79127,1.94899,406.783,34.923,45.071,45.000,0.00,0.07,-272.88,-272.91,-6,523,-934,19.2,9.9,-13.3,19.6,9.8,-13.2,0.49,2.04,-10.4,25.9
2016-11-02 00:46:00,0.0,1.94317,0.00025,405.351,0.032,0.2921,0.0017,140.000,45.000,31492.82352,1.94881,406.786,34.931,45.071,45.000,0.00,0.07,-272.87,-272.90,-5,522,-934,19.2,9.9,-13.3,19.6,9.8,-13.1,0.49,1.74,-10.4,25.9
2016-11-02 00:47:00,0.0,1.94313,0.00035,405.368,0.047,0.2912,0.0021,140.004,45.000,31495.20662,1.94875,406.798,34.937,45.071,45.000,0.00,0.07,-272.87,-272.90,-6,523,-934,19.2,9.8,-13.4,19.6,9.7,-13.2,0.49,2.08,-10.4,25.8
2016-11-02 00:48:00,0.0,1.94297,0.00030,405.359,0.042,0.2914,0.0013,140.000,45.000,31493.98855,1.94859,406.790,34.932,45.071,45.000,0.00,0.07,-272.88,-272.91,-5,522,-934,19.2,9.9,-13.3,19.6,9.8,-13.2,0.49,1.83,-10.4,25.9
2016-11-02 00:49:00,0.0,1.94287,0.00036,405.344,0.047,0.2928,0.0014,140.001,45.000,31493.71529,1.94852,406.784,34.919,45.071,45.000,0.00,0.07,-272.87,-272.91,-6,523,-934,19.2,9.9,-13.3,19.6,9.8,-13.1,0.49,1.89,-10.4,25.8
2016-11-02 00:50:00,0.0,1.94253,0.00032,405.295,0.044,0.2957,0.0018,140.000,45.000,31493.83602,1.94824,406.747,34.915,45.071,45.000,0.00,0.07,-272.87,-272.90,-5,522,-934,19.2,10.0,-13.2,19.6,9.8,-13.1,0.49,2.03,-10.4,25.8
2016-11-02 00:51:00,0.0,1.94284,0.00025,405.336,0.048,0.2942,0.0023,140.001,45.000,31493.48094,1.94850,406.780,34.924,45.071,45.000,0.00,0.07,-272.86,-272.91,-5,523,-934,19.2,9.9,-13.2,19.6,9.9,-13.0,0.49,1.74,-10.4,25.8
2016-11-02 00:52:00,0.0,1.94329,0.00036,405.398,0.019,0.2911,0.0024,140.000,45.000,31494.49236,1.94889,406.829,34.932,45.071,45.000,0.00,0.07,-272.87,-272.91,-6,522,-934,19.2,9.9,-13.4,19.6,9.8,-13.1,0.49,2.07,-10.4,25.9
2016-11-02 00:53:00,0.0,1.94336,0.00037,405.356,0.041,0.2927,0.0019,140.001,45.000,31494.68832,1.94899,406.796,34.918,45.071,45.000,0.00,0.07,-272.87,-272.90,-5,523,-934,19.2,9.9,-13.3,19.6,9.8,-13.2,0.49,1.83,-10.4,25.8
2016-11-02 00:54:00,0.0,1.94289,0.00035,405.312,0.031,0.2928,0.0014,140.000,45.000,31494.19876,1.94857,406.750,34.935,45.071,45.000,0.00,0.07,-272.86,-272.90,-6,522,-934,19.2,9.9,-13.3,19.6,9.8,-13.1,0.49,1.89,-10.4,25.8
2016-11-02 00:55:00,0.0,1.94312,0.00033,405.338,0.034,0.2917,0.0017,140.002,45.000,31495.86193,1.94871,406.771,34.943,45.071,45.000,0.00,0.07,-272.88,-272.90,-5,523,-934,19.2,9.9,-13.3,19.6,9.8,-13.1,0.49,2.04,-10.4,25.8
2016-11-02 00:56:00,0.0,1.94325,0.00025,405.319,0.033,0.2917,0.0023,140.000,45.000,31494.68947,1.94888,406.752,34.940,45.071,45.000,0.00,0.07,-272.87,-272.91,-6,523,-934,19.2,9.9,-13.3,19.6,9.8,-13.2,0.49,1.74,-10.4,25.8
2016-11-02 00:57:00,0.0,1.94329,0.00035,405.329,0.025,0.2945,0.0018,139.999,45.000,31495.51782,1.94897,406.776,34.944,45.071,45.000,0.00,0.07,-272.87,-272.91,-4,523,-934,19.2,9.9,-13.3,19.6,9.8,-13.1,0.49,2.07,-10.4,25.8
2016-11-02 00:58:00,0.0,1.94345,0.00040,405.291,0.051,0.2945,0.0021,139.998,45.000,31493.90135,1.94914,406.739,34.943,45.071,45.000,0.00,0.07,-272.88,-272.91,-6,523,-934,19.2,10.0,-13.2,19.6,9.8,-13.1,0.49,1.83,-10.4,25.8
2016-11-02 00:59:00,0.0,1.94317,0.00027,405.262,0.044,0.2985,0.0016,140.000,45.000,31494.28064,1.94891,406.728,34.950,45.071,45.000,0.00,0.07,-272.88,-272.92,-5,522,-934,19.2,10.1,-13.1,19.6,9.9,-13.0,0.49,1.89,-10.4,25.8
2016-11-02 01:00:00,0.0,1.94309,0.00033,405.197,0.046,0.2995,0.0012,139.999,45.000,31494.06091,1.94887,406.670,34.939,45.071,45.000,0.00,0.07,-272.87,-272.90,-6,523,-934,19.2,10.1,-13.0,19.6,10.0,-12.9,0.49,2.04,-10.4,25.8
2016-11-02 01:01:00,0.0,1.94302,0.00042,405.171,0.032,0.3033,0.0020,139.999,45.000,31495.58880,1.94884,406.659,34.937,45.071,45.000,0.00,0.07,-272.86,-272.91,-5,522,-934,19.2,10.2,-12.9,19.6,10.0,-12.8,0.49,1.74,-10.4,25.8
2016-11-02 01:02:00,0.0,1.94348,0.00040,405.269,0.039,0.3003,0.0021,139.997,45.000,31492.50184,1.94924,406.744,34.920,45.071,45.000,0.00,0.07,-272.88,-272.91,-5,523,-934,19.2,10.2,-12.9,19.6,10.0,-12.8,0.49,2.07,-10.4,25.8
2016-11-02 01:03:00,0.0,1.94353,0.00042,405.329,0.061,0.2998,0.0019,140.002,45.000,31493.56490,1.94932,406.800,34.897,45.071,45.000,0.00,0.07,-272.87,-272.90,-6,522,-934,19.2,10.1,-13.0,19.6,10.0,-12.8,0.49,1.82,-10.4,25.8
2016-11-02 01:04:00,0.0,1.94300,0.00043,405.324,0.066,0.2971,0.0013,139.999,45.000,31496.48033,1.94879,406.787,34.887,45.071,45.000,0.00,0.07,-272.86,-272.90,-5,523,-934,19.2,10.1,-13.1,19.6,10.0,-12.9,0.49,1.89,-10.4,25.8
2016-11-02 01:05:00,0.0,1.94316,0.00045,405.322,0.052,0.2989,0.0014,140.000,45.000,31495.97869,1.94891,406.789,34.892,45.071,45.001,0.00,0.07,-272.88,-272.90,-6,522,-934,19.2,10.1,-13.1,19.6,10.0,-12.9,0.49,2.03,-10.4,25.8
2016-11-02 01:06:00,0.0,1.94341,0.00047,405.371,0.040,0.2975,0.0016,140.001,45.000,31496.78945,1.94912,406.832,34.929,45.071,45.000,0.00,0.07,-272.87,-272.91,-5,523,-934,19.2,10.0,-13.1,19.6,10.0,-12.9,0.49,1.74,-10.4,25.8
2016-11-02 01:07:00,0.0,1.94289,0.00035,405.309,0.048,0.2974,0.0017,140.000,45.000,31497.66353,1.94866,406.771,34.909,45.071,45.000,0.00,0.07,-272.87,-272.91,-6,522,-934,19.2,10.1,-13.1,19.6,9.9,-12.9,0.49,2.08,-10.4,25.9
2016-11-02 01:08:00,0.0,1.94250,0.00038,405.244,0.030,0.3008,0.0022,140.001,45.000,31498.73479,1.94830,406.723,34.904,45.071,45.000,0.00,0.07,-272.87,-272.90,-4,523,-934,19.2,10.2,-13.0,19.6,10.0,-12.9,0.49,1.82,-10.4,25.8
2016-11-02 01:09:00,0.0,1.94272,0.00049,405.230,0.032,0.3045,0.0017,140.000,45.000,31497.08333,1.94855,406.726,34.925,45.071,45.000,0.00,0.07,-272.87,-272.92,-6,523,-934,19.2,10.3,-12.8,19.6,10.1,-12.8,0.49,1.90,-10.4,25.8
2016-11-02 01:10:00,0.0,1.94271,0.00039,405.261,0.027,0.3052,0.0018,140.000,45.000,31496.93387,1.94859,406.761,34.897,45.071,45.000,0.00,0.07,-272.87,-272.91,-5,522,-934,19.2,10.3,-12.8,19.6,10.2,-12.7,0.49,2.03,-10.4,25.9
2016-11-02 01:11:00,0.0,1.94303,0.00036,405.281,0.036,0.3023,0.0025,140.003,45.000,31495.62035,1.94888,406.766,34.901,45.071,45.000,0.00,0.07,-272.86,-272.91,-6,523,-934,19.2,10.2,-12.9,19.6,10.1,-12.7,0.49,1.74,-10.4,25.9
2016-11-02 01:12:00,0.0,1.94285,0.00046,405.293,0.030,0.3006,0.0015,140.004,45.000,31496.63708,1.94864,406.770,34.923,45.071,45.000,0.00,0.07,-272.88,-272.91,-5,523,-934,19.2,10.1,-13.0,19.6,10.0,-12.8,0.49,2.08,-10.4,25.8
2016-11-02 01:13:00,0.0,1.94323,0.00043,405.310,0.039,0.3009,0.0019,140.000,45.000,31495.05401,1.94900,406.788,34.938,45.071,45.000,0.00,0.07,-272.88,-272.91,-6,523,-934,19.2,10.1,-13.0,19.6,10.0,-12.8,0.49,1.82,-10.4,25.9
2016-11-02 01:14:00,0.0,1.94307,0.00042,405.293,0.025,0.2975,0.0023,140.002,45.000,31494.92439,1.94883,406.755,34.944,45.071,45.000,0.00,0.07,-272.86,-272.90,-5,522,-934,19.2,10.0,-13.1,19.6,10.0,-12.9,0.49,1.89,-10.4,25.9
2016-11-02 01:15:00,0.0,1.94363,0.00044,405.339,0.044,0.2946,0.0019,140.001,45.000,31496.46551,1.94929,406.785,34.982,45.071,45.000,0.00,0.07,-272.88,-272.91,-5,523,-934,19.2,9.9,-13.3,19.6,9.9,-13.0,0.49,2.04,-10.4,25.9
2016-11-02 01:16:00,0.0,1.94377,0.00060,405.422,0.130,0.2964,0.0021,139.998,45.000,31493.59642,1.94949,406.877,34.998,45.071,44.999,0.00,0.07,-272.88,-272.91,-6,522,-934,19.2,10.0,-13.2,19.6,9.9,-13.0,0.49,1.74,-10.3,25.9
2016-11-02 01:17:00,0.0,1.94393,0.00070,405.513,0.187,0.2974,0.0021,140.002,45.000,31496.24137,1.94963,406.971,34.988,45.071,45.000,0.00,0.07,-272.87,-272.90,-5,523,-934,19.2,10.0,-13.2,19.6,9.9,-13.0,0.49,2.07,-10.4,25.9
2016-11-02 01:18:00,0.0,1.94446,0.00059,405.590,0.167,0.2894,0.0038,140.000,45.000,31495.03453,1.95009,407.019,34.970,45.070,44.999,0.00,0.07,-272.87,-272.90,-6,523,-934,19.2,9.8,-13.4,19.6,9.8,-13.1,0.49,1.83,-10.4,25.9
2016-11-02 01:19:00,0.0,1.94445,0.00057,405.570,0.120,0.2943,0.0049,140.000,45.000,31495.47972,1.95005,407.009,34.944,45.071,45.000,0.00,0.07,-272.87,-272.91,-5,523,-934,19.2,9.9,-13.3,19.6,9.7,-13.2,0.49,1.88,-10.4,25.9
2016-11-02 01:20:00,0.0,1.94499,0.00082,405.655,0.163,0.2939,0.0049,140.001,45.000,31494.79732,1.95065,407.102,34.937,45.071,45.000,0.00,0.07,-272.88,-272.91,-6,523,-934,19.2,9.9,-13.3,19.6,9.9,-13.0,0.49,2.04,-10.4,25.8
2016-11-02 01:21:00,0.0,1.94556,0.00048,405.838,0.095,0.2862,0.0027,140.002,45.000,31495.07921,1.95112,407.248,34.934,45.071,45.000,0.00,0.07,-272.86,-272.90,-5,523,-934,19.2,9.6,-13.6,19.6,9.6,-13.3,0.49,1.74,-10.4,25.9
2016-11-02 01:22:00,0.0,1.94499,0.00054,405.691,0.101,0.2795,0.0028,140.001,45.000,31497.48894,1.95034,407.062,34.923,45.071,45.000,0.00,0.07,-272.87,-272.91,-6,523,-934,19.2,9.5,-13.8,19.6,9.4,-13.5,0.49,2.06,-10.4,25.9
2016-11-02 01:23:00,0.0,1.94466,0.00055,405.696,0.065,0.2870,0.0019,140.000,45.000,31497.35023,1.95023,407.108,34.931,45.071,45.001,0.00,0.07,-272.87,-272.91,-5,523,-934,19.2,9.7,-13.6,19.6,9.5,-13.4,0.49,1.85,-10.4,25.9
2016-11-02 01:24:00,0.0,1.94466,0.00048,405.743,0.066,0.2876,0.0024,139.998,45.000,31498.18609,1.95022,407.155,34.933,45.071,45.000,0.00,0.07,-272.87,-272.91,-6,523,-934,19.2,9.7,-13.5,19.6,9.6,-13.3,0.49,1.85,-10.4,25.9
2016-11-02 01:25:00,0.0,1.94460,0.00041,405.708,0.060,0.2892,0.0028,139.999,45.000,31495.65326,1.95016,407.132,34.922,45.071,45.000,0.00,0.07,-272.88,-272.90,-5,523,-934,19.2,9.7,-13.5,19.6,9.7,-13.3,0.49,2.06,-10.4,25.9
2016-11-02 01:26:00,0.0,1.94472,0.00084,405.620,0.148,0.2866,0.0021,140.000,45.000,31496.16200,1.95021,407.028,34.910,45.071,45.000,0.00,0.07,-272.88,-272.91,-5,523,-934,19.2,9.7,-13.6,19.6,9.6,-13.3,0.49,1.74,-10.4,25.9
2016-11-02 01:27:00,0.0,1.94542,0.00030,405.821,0.064,0.2878,0.0027,140.001,45.000,31496.71798,1.95097,407.235,34.878,45.071,45.000,0.00,0.07,-272.87,-272.91,-6,522,-934,19.2,9.7,-13.6,19.6,9.6,-13.3,0.49,2.04,-10.4,25.9
2016-11-02 01:28:00,0.0,1.94574,0.00041,405.911,0.040,0.2804,0.0020,140.002,45.000,31495.59100,1.95116,407.290,34.876,45.071,45.000,0.00,0.07,-272.87,-272.90,-5,523,-934,19.2,9.5,-13.8,19.6,9.5,-13.5,0.49,1.88,-10.4,25.9
2016-11-02 01:29:00,0.0,1.94579,0.00039,405.907,0.049,0.2775,0.0019,140.001,45.000,31496.37117,1.95115,407.271,34.886,45.071,45.000,0.00,0.07,-272.87,-272.91,-6,523,-934,19.2,9.4,-13.9,19.6,9.4,-13.7,0.49,1.83,-10.4,25.9
2016-11-02 01:30:00,0.0,1.94617,0.00039,405.964,0.035,0.2811,0.0024,140.000,45.000,31494.64834,1.95159,407.345,34.890,45.071,45.000,0.00,0.07,-272.87,-272.90,-5,523,-934,19.2,9.5,-13.8,19.6,9.4,-13.6,0.49,2.07,-10.4,25.8
2016-11-02 01:31:00,0.0,1.94613,0.00039,405.974,0.069,0.2810,0.0023,139.999,45.000,31492.77133,1.95154,407.356,34.932,45.071,45.000,0.00,0.07,-272.86,-272.90,-6,523,-934,19.2,9.5,-13.8,19.6,9.4,-13.6,0.49,1.74,-10.4,25.8
2016-11-02 01:32:00,0.0,1.94639,0.00048,406.045,0.082,0.2758,0.0023,140.001,45.000,31497.25864,1.95175,407.407,34.938,45.071,45.000,0.00,0.07,-272.87,-272.90,-5,523,-934,19.2,9.3,-14.0,19.6,9.3,-13.7,0.49,2.02,-10.4,25.8
2016-11-02 01:33:00,0.0,1.94587,0.00062,405.824,0.116,0.2737,0.0030,139.999,45.000,31496.98358,1.95110,407.167,34.937,45.071,45.000,0.00,0.07,-272.87,-272.90,-6,523,-934,19.2,9.3,-14.1,19.6,9.2,-13.8,0.49,1.92,-10.4,25.8
2016-11-02 01:34:00,0.0,1.94622,0.00034,405.959,0.088,0.2841,0.0028,140.001,45.000,31497.39057,1.95169,407.353,34.929,45.071,45.000,0.00,0.07,-272.86,-272.90,-5,522,-934,19.2,9.6,-13.7,19.6,9.4,-13.6,0.49,1.81,-10.4,25.9
2016-11-02 01:35:00,0.0,1.94670,0.00049,406.055,0.080,0.2779,0.0057,139.997,45.000,31495.99890,1.95210,407.429,34.925,45.071,45.000,0.00,0.07,-272.87,-272.91,-6,523,-934,19.2,9.4,-13.9,19.6,9.4,-13.6,0.49,2.09,-10.4,25.9
2016-11-02 01:36:00,0.0,1.94583,0.00097,405.853,0.178,0.2719,0.0025,139.999,45.000,31497.57682,1.95102,407.185,34.932,45.071,45.000,0.00,0.07,-272.87,-272.92,-5,522,-934,19.2,9.2,-14.2,19.6,9.2,-13.9,0.49,1.76,-10.4,25.8
2016-11-02 01:37:00,0.0,1.94588,0.00069,405.834,0.137,0.2809,0.0023,140.003,45.000,31496.83145,1.95137,407.222,34.941,45.071,45.000,0.00,0.07,-272.87,-272.91,-5,523,-934,19.2,9.5,-13.9,19.6,9.3,-13.7,0.49,1.99,-10.4,25.9
2016-11-02 01:38:00,0.0,1.94619,0.00083,405.872,0.172,0.2787,0.0026,140.001,45.000,31496.93315,1.95151,407.236,34.946,45.071,45.000,0.00,0.07,-272.87,-272.90,-6,523,-934,19.2,9.4,-13.9,19.6,9.4,-13.7,0.49,1.96,-10.4,25.8
2016-11-02 01:39:00,0.0,1.94603,0.00052,405.889,0.118,0.2816,0.0032,140.001,45.000,31497.74650,1.95149,407.274,34.958,45.071,45.000,0.00,0.07,-272.87,-272.92,-5,523,-934,19.2,9.5,-13.8,19.6,9.4,-13.5,0.49,1.78,-10.4,25.9
2016-11-02 01:40:00,0.0,1.94617,0.00049,405.913,0.098,0.2789,0.0015,139.998,45.000,31496.03559,1.95152,407.284,34.969,45.071,45.000,0.00,0.07,-272.88,-272.91,-6,523,-934,19.2,9.4,-13.9,19.6,9.4,-13.7,0.49,2.10,-10.4,25.8
2016-11-02 01:41:00,0.0,1.94580,0.00072,405.833,0.144,0.2800,0.0037,140.000,45.000,31499.44397,1.95122,407.212,34.956,45.071,45.000,0.00,0.07,-272.86,-272.90,-4,523,-934,19.2,9.5,-13.8,19.6,9.4,-13.6,0.49,1.78,-10.4,25.9
2016-11-02 01:42:00,0.0,1.94614,0.00056,405.905,0.083,0.2776,0.0040,140.000,45.000,31501.79964,1.95150,407.267,34.977,45.071,45.000,0.00,0.07,-272.87,-272.91,-6,523,-934,19.2,9.4,-13.9,19.6,9.3,-13.7,0.49,1.96,-10.4,25.9
2016-11-02 01:43:00,0.0,1.94602,0.00045,405.925,0.083,0.2845,0.0025,140.000,45.000,31501.51789,1.95150,407.326,34.977,45.071,45.000,0.00,0.07,-272.88,-272.90,-4,523,-934,19.2,9.6,-13.7,19.6,9.5,-13.5,0.49,1.99,-10.4,25.9
2016-11-02 01:44:00,0.0,1.94585,0.00073,405.824,0.137,0.2793,0.0025,140.004,45.000,31501.84479,1.95132,407.202,34.958,45.071,45.000,0.00,0.07,-272.87,-272.90,-6,523,-934,19.2,9.5,-13.8,19.6,9.4,-13.6,0.49,1.76,-10.4,25.9
2016-11-02 01:45:00,0.0,1.94527,0.00055,405.610,0.086,0.2884,0.0033,140.003,45.000,31501.19662,1.95077,407.024,34.972,45.071,45.000,0.00,0.07,-272.87,-272.91,-5,523,-934,19.2,9.7,-13.5,19.6,9.5,-13.4,0.49,2.09,-10.4,25.9